• Em Portugal
  • Lista de países
  • Para 7 dias
  • Temperatura da água
  • Mapas de satélite
  • Mapa do tempo
  • Widgets de tempo
  • user-avatar
    Iniciar Sessão

    Previsão horária em Evlakh

    Hoje, 22 Outubro, Segunda-feira

    Tempo Temperatura Precipitação Vento Pressão Humidade
    00:00 +21°C° 0 mm 2 m/s 761 mmHg 55%
    01:00 +21°C° 0 mm 1 m/s 761 mmHg 58%
    02:00 +21°C° 0 mm 1 m/s 761 mmHg 60%
    03:00 +21°C° 0 mm 1 m/s 760 mmHg 63%
    04:00 +19°C° 0 mm 0 m/s 760 mmHg 64%
    05:00 +18°C° 0 mm 0 m/s 760 mmHg 66%
    06:00 +18°C° 0 mm 0 m/s 761 mmHg 67%
    07:00 +21°C° 0 mm 1 m/s 761 mmHg 65%
    08:00 +22°C° 0 mm 1 m/s 761 mmHg 62%
    09:00 +23°C° 0 mm 1 m/s 761 mmHg 59%
    10:00 +24°C° 0 mm 2 m/s 761 mmHg 55%
    11:00 +24°C° 0 mm 2 m/s 760 mmHg 52%
    12:00 +25°C° 0 mm 3 m/s 760 mmHg 48%
    13:00 +25°C° 0 mm 3 m/s 760 mmHg 46%
    14:00 +26°C° 0 mm 3 m/s 760 mmHg 44%
    15:00 +26°C° 0 mm 3 m/s 760 mmHg 41%
    16:00 +25°C° 0 mm 3 m/s 760 mmHg 44%
    17:00 +24°C° 0 mm 3 m/s 760 mmHg 46%
    18:00 +22°C° 0 mm 3 m/s 761 mmHg 49%
    19:00 +21°C° 0 mm 3 m/s 761 mmHg 50%
    20:00 +21°C° 0 mm 3 m/s 761 mmHg 50%
    21:00 +20°C° 0 mm 3 m/s 761 mmHg 51%
    22:00 +20°C° 0 mm 3 m/s 761 mmHg 52%
    23:00 +20°C° 0 mm 3 m/s 761 mmHg 53%

    Amanhã, 23 Outubro, Terça-feira

    Tempo Temperatura Precipitação Vento Pressão Humidade
    00:00 +20°C° 0 mm 3 m/s 761 mmHg 53%
    01:00 +19°C° 0 mm 3 m/s 761 mmHg 53%
    02:00 +19°C° 0 mm 3 m/s 761 mmHg 54%
    03:00 +19°C° 0 mm 3 m/s 761 mmHg 54%
    04:00 +19°C° 0 mm 3 m/s 761 mmHg 54%
    05:00 +18°C° 0 mm 3 m/s 761 mmHg 55%
    06:00 +18°C° 0 mm 3 m/s 761 mmHg 55%
    07:00 +19°C° 0 mm 3 m/s 761 mmHg 51%
    08:00 +21°C° 0 mm 3 m/s 761 mmHg 46%
    09:00 +22°C° 0 mm 4 m/s 762 mmHg 42%
    10:00 +25°C° 0 mm 4 m/s 761 mmHg 39%
    11:00 +26°C° 0 mm 4 m/s 761 mmHg 36%
    12:00 +27°C° 0 mm 4 m/s 760 mmHg 33%
    13:00 +27°C° 0 mm 4 m/s 760 mmHg 32%
    14:00 +27°C° 0 mm 3 m/s 760 mmHg 31%
    15:00 +27°C° 0 mm 3 m/s 759 mmHg 31%
    16:00 +26°C° 0 mm 2 m/s 760 mmHg 33%
    17:00 +25°C° 0 mm 2 m/s 760 mmHg 36%
    18:00 +23°C° 0 mm 1 m/s 760 mmHg 39%
    19:00 +23°C° 0 mm 1 m/s 760 mmHg 39%
    20:00 +22°C° 0 mm 1 m/s 760 mmHg 39%
    21:00 +22°C° 0 mm 1 m/s 760 mmHg 39%
    22:00 +21°C° 0 mm 1 m/s 760 mmHg 39%
    23:00 +21°C° 0 mm 1 m/s 760 mmHg 39%

    Depois de amanhã, 24 Outubro, Quarta-feira

    Tempo Temperatura Precipitação Vento Pressão Humidade
    00:00 +20°C° 0 mm 1 m/s 760 mmHg 39%
    01:00 +20°C° 0 mm 1 m/s 759 mmHg 40%
    02:00 +19°C° 0 mm 1 m/s 759 mmHg 41%
    03:00 +19°C° 0 mm 1 m/s 759 mmHg 43%
    04:00 +19°C° 0 mm 1 m/s 759 mmHg 43%
    05:00 +18°C° 0 mm 1 m/s 759 mmHg 44%
    06:00 +17°C° 0 mm 2 m/s 758 mmHg 44%
    07:00 +19°C° 0 mm 2 m/s 758 mmHg 40%
    08:00 +20°C° 0 mm 2 m/s 758 mmHg 36%
    09:00 +23°C° 0 mm 2 m/s 758 mmHg 32%
    10:00 +24°C° 0 mm 3 m/s 757 mmHg 31%
    11:00 +25°C° 0 mm 3 m/s 756 mmHg 29%
    12:00 +26°C° 0 mm 3 m/s 756 mmHg 27%
    13:00 +27°C° 0 mm 3 m/s 755 mmHg 27%
    14:00 +27°C° 0 mm 3 m/s 754 mmHg 27%
    15:00 +27°C° 0 mm 3 m/s 754 mmHg 27%
    16:00 +26°C° 0 mm 2 m/s 754 mmHg 30%
    17:00 +25°C° 0 mm 2 m/s 753 mmHg 33%
    18:00 +23°C° 0 mm 2 m/s 753 mmHg 35%
    19:00 +23°C° 0 mm 2 m/s 753 mmHg 36%
    20:00 +22°C° 0 mm 1 m/s 753 mmHg 37%
    21:00 +22°C° 0 mm 1 m/s 753 mmHg 38%
    22:00 +22°C° 0 mm 1 m/s 753 mmHg 39%
    23:00 +20°C° 0 mm 2 m/s 752 mmHg 39%

    25 Outubro, Quinta-feira

    Tempo Temperatura Precipitação Vento Pressão Humidade
    00:00 +20°C° 0 mm 2 m/s 752 mmHg 40%
    01:00 +20°C° 0 mm 2 m/s 752 mmHg 40%
    02:00 +20°C° 0 mm 3 m/s 751 mmHg 40%
    03:00 +20°C° 0 mm 3 m/s 751 mmHg 41%
    04:00 +19°C° 0 mm 3 m/s 751 mmHg 43%
    05:00 +19°C° 0 mm 4 m/s 750 mmHg 44%
    06:00 +19°C° 0 mm 4 m/s 750 mmHg 46%
    07:00 +21°C° 0 mm 4 m/s 750 mmHg 42%
    08:00 +23°C° 0 mm 5 m/s 750 mmHg 39%
    09:00 +25°C° 0 mm 5 m/s 749 mmHg 35%
    10:00 +27°C° 0 mm 5 m/s 749 mmHg 32%
    11:00 +28°C° 0 mm 5 m/s 748 mmHg 30%
    12:00 +29°C° 0 mm 5 m/s 748 mmHg 27%
    13:00 +29°C° 0 mm 4 m/s 747 mmHg 27%
    14:00 +30°C° 0 mm 4 m/s 747 mmHg 26%
    15:00 +30°C° 0 mm 3 m/s 746 mmHg 26%
    16:00 +28°C° 0 mm 3 m/s 746 mmHg 28%
    17:00 +27°C° 0 mm 2 m/s 746 mmHg 31%
    18:00 +25°C° 0 mm 2 m/s 746 mmHg 33%
    19:00 +25°C° 0.1 mm 2 m/s 747 mmHg 35%
    20:00 +25°C° 0.1 mm 3 m/s 748 mmHg 37%
    21:00 +24°C° 0.1 mm 3 m/s 748 mmHg 39%
    22:00 +22°C° 0 mm 3 m/s 749 mmHg 41%
    23:00 +22°C° 0 mm 3 m/s 749 mmHg 43%

    26 Outubro, Sexta-feira

    Tempo Temperatura Precipitação Vento Pressão Humidade
    00:00 +21°C° 0 mm 3 m/s 749 mmHg 46%
    01:00 +20°C° 0 mm 3 m/s 750 mmHg 48%
    02:00 +19°C° 0 mm 3 m/s 750 mmHg 50%
    03:00 +18°C° 0 mm 3 m/s 750 mmHg 52%
    04:00 +18°C° 0 mm 3 m/s 750 mmHg 53%
    05:00 +17°C° 0 mm 4 m/s 751 mmHg 54%
    06:00 +15°C° 0 mm 4 m/s 751 mmHg 54%
    07:00 +15°C° 0 mm 5 m/s 752 mmHg 54%
    08:00 +15°C° 0 mm 5 m/s 753 mmHg 53%
    09:00 +16°C° 0 mm 6 m/s 753 mmHg 53%
    10:00 +15°C° 0.4 mm 6 m/s 753 mmHg 57%
    11:00 +14°C° 0.4 mm 6 m/s 753 mmHg 61%
    12:00 +14°C° 0.4 mm 7 m/s 754 mmHg 66%
    13:00 +13°C° 2 mm 6 m/s 754 mmHg 68%
    14:00 +13°C° 2 mm 6 m/s 754 mmHg 71%
    15:00 +13°C° 2 mm 6 m/s 755 mmHg 73%
    16:00 +13°C° 1 mm 5 m/s 756 mmHg 71%
    17:00 +14°C° 1 mm 5 m/s 757 mmHg 68%
    18:00 +14°C° 1 mm 4 m/s 758 mmHg 65%
    19:00 +14°C° 0.1 mm 4 m/s 759 mmHg 63%
    20:00 +14°C° 0.1 mm 4 m/s 759 mmHg 61%
    21:00 +14°C° 0.1 mm 4 m/s 760 mmHg 59%
    22:00 +13°C° 0 mm 4 m/s 761 mmHg 57%
    23:00 +13°C° 0 mm 5 m/s 761 mmHg 55%

    27 Outubro, Sábado

    Tempo Temperatura Precipitação Vento Pressão Humidade
    00:00 +13°C° 0 mm 5 m/s 762 mmHg 52%
    01:00 +12°C° 0 mm 5 m/s 762 mmHg 51%
    02:00 +12°C° 0 mm 5 m/s 762 mmHg 50%
    03:00 +12°C° 0 mm 5 m/s 763 mmHg 49%
    04:00 +11°C° 0 mm 6 m/s 763 mmHg 48%
    05:00 +11°C° 0 mm 6 m/s 764 mmHg 46%
    06:00 +11°C° 0 mm 6 m/s 765 mmHg 45%
    07:00 +12°C° 0 mm 7 m/s 766 mmHg 43%
    08:00 +14°C° 0 mm 7 m/s 766 mmHg 40%
    09:00 +16°C° 0 mm 7 m/s 767 mmHg 37%
    10:00 +17°C° 0 mm 7 m/s 767 mmHg 36%
    11:00 +18°C° 0 mm 7 m/s 767 mmHg 34%
    12:00 +20°C° 0 mm 6 m/s 767 mmHg 33%
    13:00 +20°C° 0 mm 6 m/s 767 mmHg 32%
    14:00 +20°C° 0 mm 5 m/s 767 mmHg 32%
    15:00 +20°C° 0 mm 4 m/s 768 mmHg 31%
    16:00 +19°C° 0 mm 3 m/s 768 mmHg 35%
    17:00 +18°C° 0 mm 2 m/s 769 mmHg 38%
    18:00 +18°C° 0 mm 1 m/s 770 mmHg 41%
    19:00 +16°C° 0 mm 2 m/s 771 mmHg 42%
    20:00 +16°C° 0 mm 2 m/s 771 mmHg 44%
    21:00 +15°C° 0 mm 2 m/s 772 mmHg 45%
    22:00 +15°C° 0 mm 2 m/s 772 mmHg 49%
    23:00 +14°C° 0 mm 2 m/s 772 mmHg 53%

    28 Outubro, Domingo

    Tempo Temperatura Precipitação Vento Pressão Humidade
    00:00 +14°C° 0 mm 2 m/s 772 mmHg 57%
    01:00 +13°C° 0 mm 2 m/s 772 mmHg 59%
    02:00 +13°C° 0 mm 2 m/s 772 mmHg 61%
    03:00 +13°C° 0 mm 1 m/s 772 mmHg 63%
    04:00 +12°C° 0 mm 1 m/s 772 mmHg 63%
    05:00 +12°C° 0 mm 1 m/s 772 mmHg 64%
    06:00 +12°C° 0 mm 1 m/s 772 mmHg 65%
    07:00 +13°C° 0 mm 1 m/s 772 mmHg 62%
    08:00 +15°C° 0 mm 1 m/s 772 mmHg 59%
    09:00 +16°C° 0 mm 1 m/s 772 mmHg 55%
    10:00 +18°C° 0 mm 1 m/s 772 mmHg 53%
    11:00 +19°C° 0 mm 1 m/s 771 mmHg 51%
    12:00 +19°C° 0 mm 1 m/s 771 mmHg 48%
    13:00 +20°C° 0 mm 1 m/s 770 mmHg 47%
    14:00 +20°C° 0 mm 1 m/s 770 mmHg 46%
    15:00 +20°C° 0 mm 1 m/s 770 mmHg 45%
    16:00 +19°C° 0 mm 1 m/s 770 mmHg 49%
    17:00 +18°C° 0 mm 1 m/s 770 mmHg 54%
    18:00 +16°C° 0 mm 1 m/s 771 mmHg 58%
    19:00 +16°C° 0 mm 1 m/s 771 mmHg 60%
    20:00 +15°C° 0 mm 2 m/s 771 mmHg 62%
    21:00 +15°C° 0 mm 2 m/s 771 mmHg 65%
    22:00 +15°C° 0 mm 2 m/s 771 mmHg 66%
    23:00 +14°C° 0 mm 1 m/s 771 mmHg 67%
    Mostrar mais